Time,TemperatureF,DewpointF,PressureIn,WindDirection,WindDirectionDegrees,WindSpeedMPH,WindSpeedGustMPH,Humidity,HourlyPrecipIn,Conditions,Clouds,dailyrainin,SoftwareType,DateUTC
2013-08-22 00:01:00,70.0,69.0,30.07,East,83,0.0,0.0,96,0.00,,,0.00,,2013-08-22 04:01:00,
2013-08-22 00:24:00,70.0,69.0,30.07,East,83,0.0,0.0,96,0.00,,,0.00,,2013-08-22 04:24:00,
2013-08-22 00:34:00,70.0,69.0,30.07,East,83,0.0,0.0,96,0.00,,,0.00,,2013-08-22 04:34:00,
2013-08-22 00:54:00,70.0,69.0,30.07,East,83,0.0,0.0,96,0.00,,,0.00,,2013-08-22 04:54:00,
2013-08-22 01:02:00,70.0,69.0,30.09,East,84,0.0,0.0,97,0.00,,,0.00,,2013-08-22 05:02:00,
2013-08-22 01:23:00,70.0,69.0,30.09,East,84,0.0,0.0,97,0.00,,,0.00,,2013-08-22 05:23:00,
2013-08-22 01:34:00,70.0,69.0,30.09,East,84,0.0,0.0,97,0.00,,,0.00,,2013-08-22 05:34:00,
2013-08-22 01:43:00,70.0,69.0,30.09,East,84,0.0,0.0,97,0.00,,,0.00,,2013-08-22 05:43:00,
2013-08-22 01:53:00,70.0,69.0,30.09,East,84,0.0,0.0,97,0.00,,,0.00,,2013-08-22 05:53:00,
2013-08-22 02:01:00,71.0,70.0,30.09,East,84,0.0,0.0,97,0.00,,,0.00,,2013-08-22 06:01:00,
2013-08-22 02:22:00,71.0,70.0,30.09,East,84,0.0,0.0,97,0.00,,,0.00,,2013-08-22 06:22:00,
2013-08-22 02:32:00,71.0,70.0,30.09,East,84,0.0,0.0,97,0.00,,,0.00,,2013-08-22 06:32:00,
2013-08-22 02:42:00,71.0,70.0,30.09,East,84,0.0,0.0,97,0.00,,,0.00,,2013-08-22 06:42:00,
2013-08-22 02:52:00,71.0,70.0,30.09,East,84,0.0,0.0,97,0.00,,,0.00,,2013-08-22 06:52:00,
2013-08-22 04:01:00,-999.0,-99.9,30.05,East,84,0.0,0.0,-999,0.00,,,0.00,,2013-08-22 08:01:00,
2013-08-22 04:12:00,-999.0,-99.9,30.05,East,84,0.0,0.0,-999,0.00,,,0.00,,2013-08-22 08:12:00,
2013-08-22 04:23:00,-999.0,-99.9,30.05,East,84,0.0,0.0,-999,0.00,,,0.00,,2013-08-22 08:23:00,
2013-08-22 04:33:00,-999.0,-99.9,30.05,East,84,0.0,0.0,-999,0.00,,,0.00,,2013-08-22 08:33:00,
2013-08-22 04:43:00,-999.0,-99.9,30.05,East,84,0.0,0.0,-999,0.00,,,0.00,,2013-08-22 08:43:00,
2013-08-22 04:53:00,-999.0,-99.9,30.05,East,84,0.0,0.0,-999,0.00,,,0.00,,2013-08-22 08:53:00,
2013-08-22 05:01:00,-999.0,-99.9,30.04,East,84,0.0,0.0,-999,0.00,,,0.00,,2013-08-22 09:01:00,
2013-08-22 05:22:00,-999.0,-99.9,30.04,East,84,0.0,0.0,-999,0.00,,,0.00,,2013-08-22 09:22:00,
2013-08-22 05:33:00,-999.0,-99.9,30.04,East,84,0.0,0.0,-999,0.00,,,0.00,,2013-08-22 09:33:00,
2013-08-22 05:43:00,-999.0,-99.9,30.04,East,84,0.0,0.0,-999,0.00,,,0.00,,2013-08-22 09:43:00,
2013-08-22 05:54:00,-999.0,-99.9,30.04,East,84,0.0,0.0,-999,0.00,,,0.00,,2013-08-22 09:54:00,
2013-08-22 06:01:00,-999.0,-99.9,30.04,East,84,0.0,0.0,-999,0.00,,,0.00,,2013-08-22 10:01:00,
2013-08-22 06:23:00,-999.0,-99.9,30.04,East,84,0.0,0.0,-999,0.00,,,0.00,,2013-08-22 10:23:00,
2013-08-22 06:32:00,-999.0,-99.9,30.04,East,84,0.0,0.0,-999,0.00,,,0.00,,2013-08-22 10:32:00,
2013-08-22 06:42:00,-999.0,-99.9,30.04,East,84,0.0,0.0,-999,0.00,,,0.00,,2013-08-22 10:42:00,
2013-08-22 08:01:00,-999.0,-99.9,30.04,East,84,0.0,1.0,-999,0.00,,,0.00,,2013-08-22 12:01:00,
2013-08-22 08:32:00,-999.0,-99.9,30.04,East,84,0.0,1.0,-999,0.00,,,0.00,,2013-08-22 12:32:00,
2013-08-22 08:42:00,-999.0,-99.9,30.04,East,84,0.0,1.0,-999,0.00,,,0.00,,2013-08-22 12:42:00,
2013-08-22 08:52:00,-999.0,-99.9,30.04,East,84,0.0,1.0,-999,0.00,,,0.00,,2013-08-22 12:52:00,
2013-08-22 09:02:00,-999.0,-99.9,30.04,SW,234,0.0,4.0,-999,0.00,,,0.00,,2013-08-22 13:02:00,
2013-08-22 09:22:00,-999.0,-99.9,30.04,SW,234,0.0,4.0,-999,0.00,,,0.00,,2013-08-22 13:22:00,
2013-08-22 09:32:00,-999.0,-99.9,30.04,SW,234,0.0,4.0,-999,0.00,,,0.00,,2013-08-22 13:32:00,
2013-08-22 09:42:00,-999.0,-99.9,30.04,SW,234,0.0,4.0,-999,0.00,,,0.00,,2013-08-22 13:42:00,
2013-08-22 09:52:00,-999.0,-99.9,30.04,SW,234,0.0,4.0,-999,0.00,,,0.00,,2013-08-22 13:52:00,
2013-08-22 10:02:00,-999.0,-99.9,30.04,SW,218,0.0,1.0,-999,0.00,,,0.00,,2013-08-22 14:02:00,
2013-08-22 10:22:00,-999.0,-99.9,30.04,SW,218,0.0,1.0,-999,0.00,,,0.00,,2013-08-22 14:22:00,
2013-08-22 10:33:00,-999.0,-99.9,30.04,SW,218,0.0,1.0,-999,0.00,,,0.00,,2013-08-22 14:33:00,
2013-08-22 10:42:00,-999.0,-99.9,30.04,SW,218,0.0,1.0,-999,0.00,,,0.00,,2013-08-22 14:42:00,
2013-08-22 10:52:00,-999.0,-99.9,30.04,SW,218,0.0,1.0,-999,0.00,,,0.00,,2013-08-22 14:52:00,
2013-08-22 11:02:00,-999.0,-99.9,30.04,WSW,242,3.0,5.0,-999,0.00,,,0.00,,2013-08-22 15:02:00,
2013-08-22 11:22:00,-999.0,-99.9,30.04,WSW,242,3.0,5.0,-999,0.00,,,0.00,,2013-08-22 15:22:00,
2013-08-22 11:34:00,-999.0,-99.9,30.04,WSW,242,3.0,5.0,-999,0.00,,,0.00,,2013-08-22 15:34:00,
2013-08-22 11:44:00,-999.0,-99.9,30.04,WSW,242,3.0,5.0,-999,0.00,,,0.00,,2013-08-22 15:44:00,
2013-08-22 11:55:00,-999.0,-99.9,30.04,WSW,242,3.0,5.0,-999,0.00,,,0.00,,2013-08-22 15:55:00,
2013-08-22 12:01:00,-999.0,-99.9,30.03,SW,232,3.0,6.0,-999,0.00,,,0.00,,2013-08-22 16:01:00,
2013-08-22 12:25:00,-999.0,-99.9,30.03,SW,232,3.0,6.0,-999,0.00,,,0.00,,2013-08-22 16:25:00,
2013-08-22 12:34:00,-999.0,-99.9,30.03,SW,232,3.0,6.0,-999,0.00,,,0.00,,2013-08-22 16:34:00,
2013-08-22 12:44:00,-999.0,-99.9,30.03,SW,232,3.0,6.0,-999,0.00,,,0.00,,2013-08-22 16:44:00,
2013-08-22 12:54:00,-999.0,-99.9,30.03,SW,232,3.0,6.0,-999,0.00,,,0.00,,2013-08-22 16:54:00,
2013-08-22 13:01:00,79.0,75.0,30.01,NW,314,0.0,2.0,87,0.00,,,0.00,,2013-08-22 17:01:00,
2013-08-22 13:24:00,79.0,75.0,30.01,NW,314,0.0,2.0,87,0.00,,,0.00,,2013-08-22 17:24:00,
2013-08-22 13:33:00,79.0,75.0,30.01,NW,314,0.0,2.0,87,0.00,,,0.00,,2013-08-22 17:33:00,
2013-08-22 13:53:00,79.0,75.0,30.01,NW,314,0.0,2.0,87,0.00,,,0.00,,2013-08-22 17:53:00,
2013-08-22 14:01:00,78.0,73.0,29.99,West,267,0.0,2.0,84,0.00,,,0.00,,2013-08-22 18:01:00,
2013-08-22 14:22:00,78.0,73.0,29.99,West,267,0.0,2.0,84,0.00,,,0.00,,2013-08-22 18:22:00,
2013-08-22 14:32:00,78.0,73.0,29.99,West,267,0.0,2.0,84,0.00,,,0.00,,2013-08-22 18:32:00,
2013-08-22 14:52:00,78.0,73.0,29.99,West,267,0.0,2.0,84,0.00,,,0.00,,2013-08-22 18:52:00,
2013-08-22 15:01:00,78.0,74.0,29.97,NNE,32,0.0,2.0,89,0.00,,,0.00,,2013-08-22 19:01:00,
2013-08-22 15:22:00,78.0,74.0,29.97,NNE,32,0.0,2.0,89,0.00,,,0.00,,2013-08-22 19:22:00,
2013-08-22 15:33:00,78.0,74.0,29.97,NNE,32,0.0,2.0,89,0.00,,,0.00,,2013-08-22 19:33:00,
2013-08-22 15:53:00,78.0,74.0,29.97,NNE,32,0.0,2.0,89,0.00,,,0.00,,2013-08-22 19:53:00,
2013-08-22 16:01:00,79.0,75.0,29.96,WNW,290,0.0,0.0,87,0.00,,,0.00,,2013-08-22 20:01:00,
2013-08-22 16:23:00,79.0,75.0,29.96,WNW,290,0.0,0.0,87,0.00,,,0.00,,2013-08-22 20:23:00,
2013-08-22 16:32:00,79.0,75.0,29.96,WNW,290,0.0,0.0,87,0.00,,,0.00,,2013-08-22 20:32:00,
2013-08-22 16:42:00,79.0,75.0,29.96,WNW,290,0.0,0.0,87,0.00,,,0.00,,2013-08-22 20:42:00,
2013-08-22 16:52:00,79.0,75.0,29.96,WNW,290,0.0,0.0,87,0.00,,,0.00,,2013-08-22 20:52:00,
2013-08-22 17:01:00,80.0,76.0,29.94,WNW,290,0.0,1.0,87,0.00,,,0.00,,2013-08-22 21:01:00,
2013-08-22 17:22:00,80.0,76.0,29.94,WNW,290,0.0,1.0,87,0.00,,,0.00,,2013-08-22 21:22:00,
2013-08-22 17:34:00,80.0,76.0,29.94,WNW,290,0.0,1.0,87,0.00,,,0.00,,2013-08-22 21:34:00,
2013-08-22 17:44:00,80.0,76.0,29.94,WNW,290,0.0,1.0,87,0.00,,,0.00,,2013-08-22 21:44:00,
2013-08-22 17:54:00,80.0,76.0,29.94,WNW,290,0.0,1.0,87,0.00,,,0.00,,2013-08-22 21:54:00,
2013-08-22 18:01:00,81.0,76.0,29.92,NNW,340,0.0,0.0,85,0.00,,,0.00,,2013-08-22 22:01:00,
2013-08-22 18:25:00,81.0,76.0,29.92,NNW,340,0.0,0.0,85,0.00,,,0.00,,2013-08-22 22:25:00,
2013-08-22 18:34:00,81.0,76.0,29.92,NNW,340,0.0,0.0,85,0.00,,,0.00,,2013-08-22 22:34:00,
2013-08-22 18:42:00,81.0,76.0,29.92,NNW,340,0.0,0.0,85,0.00,,,0.00,,2013-08-22 22:42:00,
2013-08-22 18:53:00,81.0,76.0,29.92,NNW,340,0.0,0.0,85,0.00,,,0.00,,2013-08-22 22:53:00,
2013-08-22 19:01:00,77.0,73.0,29.91,NNW,340,0.0,0.0,88,0.00,,,0.00,,2013-08-22 23:01:00,
2013-08-22 19:23:00,77.0,73.0,29.91,NNW,340,0.0,0.0,88,0.00,,,0.00,,2013-08-22 23:23:00,
2013-08-22 19:33:00,77.0,73.0,29.91,NNW,340,0.0,0.0,88,0.00,,,0.00,,2013-08-22 23:33:00,
2013-08-22 19:42:00,77.0,73.0,29.91,NNW,340,0.0,0.0,88,0.00,,,0.00,,2013-08-22 23:42:00,
2013-08-22 19:53:00,77.0,73.0,29.91,NNW,340,0.0,0.0,88,0.00,,,0.00,,2013-08-22 23:53:00,
2013-08-22 20:01:00,74.0,71.0,29.92,NNW,340,0.0,0.0,91,0.00,,,0.00,,2013-08-23 00:01:00,
2013-08-22 20:23:00,74.0,71.0,29.92,NNW,340,0.0,0.0,91,0.00,,,0.00,,2013-08-23 00:23:00,
2013-08-22 20:33:00,74.0,71.0,29.92,NNW,340,0.0,0.0,91,0.00,,,0.00,,2013-08-23 00:33:00,
2013-08-22 20:42:00,74.0,71.0,29.92,NNW,340,0.0,0.0,91,0.00,,,0.00,,2013-08-23 00:42:00,
2013-08-22 20:52:00,74.0,71.0,29.92,NNW,340,0.0,0.0,91,0.00,,,0.00,,2013-08-23 00:52:00,
2013-08-22 21:02:00,72.0,70.0,29.94,NNW,340,0.0,0.0,94,0.00,,,0.00,,2013-08-23 01:02:00,
2013-08-22 21:22:00,72.0,70.0,29.94,NNW,340,0.0,0.0,94,0.00,,,0.00,,2013-08-23 01:22:00,
2013-08-22 21:33:00,72.0,70.0,29.94,NNW,340,0.0,0.0,94,0.00,,,0.00,,2013-08-23 01:33:00,
2013-08-22 21:42:00,72.0,70.0,29.94,NNW,340,0.0,0.0,94,0.00,,,0.00,,2013-08-23 01:42:00,
2013-08-22 21:52:00,72.0,70.0,29.94,NNW,340,0.0,0.0,94,0.00,,,0.00,,2013-08-23 01:52:00,
2013-08-22 22:02:00,71.0,69.0,29.93,NNW,340,0.0,0.0,95,0.00,,,0.00,,2013-08-23 02:02:00,
2013-08-22 22:23:00,71.0,69.0,29.93,NNW,340,0.0,0.0,95,0.00,,,0.00,,2013-08-23 02:23:00,
2013-08-22 22:33:00,71.0,69.0,29.93,NNW,340,0.0,0.0,95,0.00,,,0.00,,2013-08-23 02:33:00,
2013-08-22 22:43:00,71.0,69.0,29.93,NNW,340,0.0,0.0,95,0.00,,,0.00,,2013-08-23 02:43:00,
2013-08-22 22:52:00,71.0,69.0,29.93,NNW,340,0.0,0.0,95,0.00,,,0.00,,2013-08-23 02:52:00,
2013-08-22 23:02:00,71.0,68.0,29.94,WSW,248,0.0,3.0,90,0.00,,,0.00,,2013-08-23 03:02:00,
2013-08-22 23:23:00,71.0,68.0,29.94,WSW,248,0.0,3.0,90,0.00,,,0.00,,2013-08-23 03:23:00,
2013-08-22 23:34:00,71.0,68.0,29.94,WSW,248,0.0,3.0,90,0.00,,,0.00,,2013-08-23 03:34:00,
2013-08-22 23:55:00,71.0,68.0,29.94,WSW,248,0.0,3.0,90,0.00,,,0.00,,2013-08-23 03:55:00,